• Join FlightAware (Why Join?)
  • Login
  • US Flag GB Flag 
19:16 EDT


 

Airport Tracker/Info


-or-


 

Live Flight TrackerFlight Track Log ✈ AAY860 ✈ 27-Dec-2013 ✈ KPIE - KLEX

Flight Track Log - Related Links

Times and Time Zones

All times are in EST time to prevent confusion due to time zone crossing. See the AAY860 flight status page for this flight to view local times or setup timezone preferences in your user account.

Time Position Orientation Groundspeed Altitude Reporting Facility
EST Latitude Longitude Course Direction KTS MPH feet Rate Location/Type
07:26 27.9333 -82.7000 348° North 147 169 1,000  Level Tampa TRACON
07:28 28.0206 -82.7208 348° North 189 217 3,900 1,860 Climbing Jacksonville Center
07:29 28.0956 -82.7467 343° North 222 255 6,500 2,700 Climbing Jacksonville Center
07:30 28.1792 -82.7561 354° North 276 318 9,400 2,280 Climbing Jacksonville Center
07:31 28.2647 -82.7794 346° North 299 344 11,100 1,800 Climbing Jacksonville Center
07:32 28.3628 -82.8217 339° North 338 389 13,000 2,340 Climbing Jacksonville Center
07:33 28.4672 -82.8619 341° North 376 433 15,800 2,400 Climbing Jacksonville Center
07:34 28.5797 -82.8997 344° North 400 460 17,800 1,860 Climbing Jacksonville Center
07:35 28.6925 -82.9400 343° North 416 479 19,600 1,800 Climbing Jacksonville Center
07:36 28.7947 -82.9683 346° North 421 484 21,400 1,560 Climbing Jacksonville Center
07:37 28.9011 -83.0325 332° Northwest 421 484 22,800 1,380 Climbing Jacksonville Center
07:38 29.0033 -83.1133 325° Northwest 434 499 24,200 1,500 Climbing Jacksonville Center
07:39 29.1056 -83.1919 326° Northwest 445 512 25,800 1,380 Climbing Jacksonville Center
07:40 29.2033 -83.2756 323° Northwest 445 512 27,000 1,200 Climbing Jacksonville Center
07:41 29.3075 -83.3522 327° Northwest 445 512 28,300 1,080 Climbing Jacksonville Center
07:42 29.4306 -83.3933 344° North 445 512 29,200 840 Climbing Jacksonville Center
07:43 29.5556 -83.4297 346° North 450 518 30,000 300 Climbing Jacksonville Center
07:44 29.6828 -83.4639 347° North 460 529 29,900 -60 Descending Jacksonville Center
07:45 29.8142 -83.4981 347° North 471 542 29,900  Level Jacksonville Center
07:46 29.9392 -83.5303 347° North 471 542 29,900  Level Jacksonville Center
07:47 30.0706 -83.5647 347° North 471 542 30,000 60 Climbing Jacksonville Center
07:48 30.1956 -83.6014 346° North 465 535 30,100 540 Climbing Jacksonville Center
07:49 30.3250 -83.6289 350° North 465 535 31,100 900 Climbing Jacksonville Center
07:50 30.4458 -83.6661 345° North 465 535 31,900 420 Climbing Jacksonville Center
07:51 30.5689 -83.6961 348° North 460 529 32,000 600 Climbing Jacksonville Center
07:52 30.6939 -83.7333 346° North 455 524 33,100 960 Climbing Jacksonville Center
07:53 30.8189 -83.7633 348° North 449 517 34,000 420 Climbing Jacksonville Center
07:54 30.9461 -83.8033 345° North 444 511 34,000  Level Jacksonville Center
07:55 31.0689 -83.8311 349° North 444 511 34,000  Level Jacksonville Center
07:56 31.1919 -83.8689 345° North 444 511 34,000  Level Jacksonville Center
07:58 31.4503 -83.9439 346° North 453 521 34,000  Level Atlanta Center
07:59 31.5503 -83.9683 348° North 453 521 34,000  Level Atlanta Center
08:00 31.6861 -83.9950 351° North 448 516 34,000  Level Atlanta Center
08:01 31.8072 -84.0267 347° North 448 516 34,000  Level Atlanta Center
08:02 31.9303 -84.0486 351° North 448 516 34,000  Level Atlanta Center
08:03 32.0533 -84.0831 347° North 448 516 34,000  Level Atlanta Center
08:04 32.1786 -84.1025 353° North 448 516 34,000  Level Atlanta Center
08:05 32.2997 -84.1347 347° North 448 516 34,000  Level Atlanta Center
08:06 32.4228 -84.1569 351° North 448 516 34,000  Level Atlanta Center
08:07 32.5439 -84.1917 346° North 448 516 34,000  Level Atlanta Center
08:08 32.6669 -84.2164 350° North 448 516 34,000  Level Atlanta Center
08:09 32.7900 -84.2439 349° North 448 516 34,000  Level Atlanta Center
08:10 32.9236 -84.2789 348° North 442 509 34,000  Level Atlanta Center
08:11 33.0467 -84.3039 350° North 452 520 34,000  Level Atlanta Center
08:12 33.1697 -84.3342 348° North 447 514 34,000  Level Atlanta Center
08:13 33.2928 -84.3594 350° North 447 514 34,000  Level Atlanta Center
08:14 33.4139 -84.3922 347° North 447 514 34,000  Level Atlanta Center
08:15 33.5411 -84.4150 352° North 447 514 34,000  Level Atlanta Center
08:16 33.6497 -84.4356 351° North 447 514 34,000  Level Atlanta Center
08:17 33.7811 -84.4036 11° North 454 522 34,000  Level Atlanta Center
08:18 33.9086 -84.3742 11° North 468 539 34,000  Level Atlanta Center
08:19 34.0422 -84.3422 11° North 468 539 34,000  Level Atlanta Center
08:20 34.1947 -84.3025 12° North 488 562 34,000  Level Atlanta Center
08:21 34.3242 -84.2778 North 482 555 34,000  Level Atlanta Center
08:22 34.4536 -84.2806 359° North 474 545 34,000  Level Atlanta Center
08:23 34.5808 -84.2861 358° North 458 527 34,000  Level Atlanta Center
08:24 34.7122 -84.2864 360° North 458 527 34,000  Level Atlanta Center
08:25 34.8353 -84.2994 355° North 450 518 34,000  Level Atlanta Center
08:26 34.9586 -84.3022 359° North 444 511 34,000  Level Atlanta Center
08:27 35.0817 -84.3181 354° North 439 505 34,000  Level Atlanta Center
08:28 35.2067 -84.3183 360° North 445 512 34,000  Level Atlanta Center
08:29 35.3319 -84.3289 356° North 445 512 34,000  Level Atlanta Center
08:30 35.4592 -84.3344 358° North 445 512 34,000  Level Atlanta Center
08:31 35.5844 -84.3400 358° North 445 512 34,000 -480 Level Atlanta Center
08:32 35.7033 -84.3431 359° North 440 506 33,100 -960 Descending Atlanta Center
08:33 35.8242 -84.3539 356° North 440 506 32,100 -960 Descending Atlanta Center
08:34 35.9472 -84.3594 358° North 440 506 31,200 -960 Descending Atlanta Center
08:35 36.0725 -84.3675 357° North 440 506 30,200 -1,020 Descending Atlanta Center
08:36 36.1956 -84.3758 357° North 440 506 29,200 -900 Descending Atlanta Center
08:37 36.3425 -84.3794 359° North 453 521 28,200 -540 Descending Indianapolis Center
08:38 36.4633 -84.3878 357° North 439 505 28,000 -120 Descending Indianapolis Center
08:39 36.5978 -84.3939 358° North 434 499 28,000 -120 Level Indianapolis Center
08:40 36.7192 -84.4017 357° North 435 501 27,800 -540 Descending Indianapolis Center
08:41 36.8419 -84.4083 358° North 438 504 27,000 -960 Descending Indianapolis Center
08:42 36.9619 -84.4178 356° North 432 497 25,900 -1,860 Descending Indianapolis Center
08:43 37.0836 -84.4231 358° North 434 499 23,200 -3,060 Descending Indianapolis Center
08:44 37.2022 -84.4300 357° North 426 490 19,700 -3,540 Descending Indianapolis Center
08:45 37.3161 -84.4344 358° North 411 473 15,900 -4,080 Descending Indianapolis Center
08:46 37.4389 -84.4456 356° North 382 440 11,400 -2,880 Descending Indianapolis Center
08:47 37.5403 -84.4469 359° North 370 426 10,000 -720 Descending Indianapolis Center
08:48 37.6289 -84.4531 357° North 331 381 10,000 -540 Level Indianapolis Center
08:49 37.7047 -84.4564 358° North 289 333 9,000 -1,320 Descending Indianapolis Center
08:50 37.7797 -84.4639 355° North 272 313 7,400 -1,680 Descending Indianapolis Center
08:51 37.8531 -84.4653 359° North 265 305 5,600 -1,140 Descending Indianapolis Center
08:52 37.9267 -84.4725 356° North 264 304 5,100 -300 Descending Indianapolis Center
08:53 37.9917 -84.4664 North 209 241 5,100 -300 Level Indianapolis Center
08:54 38.0372 -84.4342 29° Northeast 187 215 4,600 -540 Descending Indianapolis Center
08:55 38.0811 -84.4036 29° Northeast 185 213 4,000 -300 Descending Indianapolis Center
08:57 38.1208 -84.3994 North 169 194 4,100 -300 Climbing Indianapolis Center
08:58 38.1442 -84.4472 302° West 161 185 3,400 -540 Descending Indianapolis Center
08:59 38.1394 -84.4908 262° West 159 183 3,000 -300 Descending Indianapolis Center
09:00 38.1081 -84.5269 222° Southwest 144 166 2,900 -420 Descending Indianapolis Center
09:01 38.0828 -84.5550 221° Southwest 132 152 2,200 -660 Descending Indianapolis Center
09:02 38.0614 -84.5786 221° Southwest 127 146 1,600 -600 Descending Indianapolis Center